Regional Weather Roundup
Issued by NWS Northern Indiana

Home | Current Version | Previous Version | Text Only | Print | Product List | Glossary Off
Versions: 1 2 3 4 5 6 7 8 9 10 11 12 13 14 15 16 17 18 19 20 21 22 23 24 25 26 27 28 29 30 31 32 33 34 35 36 37 38 39 40 41 42 43 44 45 46 47 48 49 50

000
ASUS43 KIWX 180800
RWRIWX

KIWX WEATHER ROUNDUP
NATIONAL WEATHER SERVICE NORTHERN INDIANA
400 AM EDT FRI AUG 18 2017

NOTE: "FAIR" INDICATES FEW OR NO CLOUDS BELOW 12,000 FEET WITH NO
SIGNIFICANT WEATHER AND/OR OBSTRUCTIONS TO VISIBILITY.

* THESE STATIONS ARE NOT UNDER NWS QUALITY CONTROL. THEY ALSO MAY NOT
  REPORT WEATHER SUCH AS PRECIPITATION OR FOG.

INZ001>027-180900-
NORTHERN INDIANA

CITY           SKY/WX    TMP DP  RH WIND       PRES   REMARKS
MICHIGAN CITY* CLOUDY    72  63  73 W8        29.78S
SOUTH BEND     MOCLDY    67  67 100 SW8       29.77S
GOSHEN         CLEAR     66  63  90 SW7       29.77S
MONTICELLO*    CLEAR     67  64  91 SW7       29.80S
WARSAW*        CLEAR     68  66  94 W8        29.79S
FORT WAYNE     PTCLDY    69  65  86 W10       29.79S
PERU/GRISSOM   CLEAR     66  66 100 W8        29.80S

$$
INZ028>050-180900-
CENTRAL INDIANA

CITY           SKY/WX    TMP DP  RH WIND       PRES   REMARKS
LAFAYETTE      CLEAR     65  65 100 W3        29.82R
KOKOMO*        CLEAR     68  65  90 W7        29.82S
MUNCIE*        CLEAR     72  67  84 SW6       29.83R
INDIANAPOLIS   PTCLDY    69  66  90 W7        29.83S

$$
MIZ043>046-050>051-056>058-064>065-071>073-077>080-180900-
SOUTHWEST LOWER MICHIGAN

CITY           SKY/WX    TMP DP  RH WIND       PRES   REMARKS
BATTLE CREEK   PTCLDY    69  63  81 W13       29.74S
BENTON HARBOR  CLOUDY    70  64  81 W15       29.75S
COLDWATER*     CLEAR     67  62  83 SW6       29.76S
HILLSDALE*     PTCLDY    68  63  83 W10G17    29.75F
HOLLAND        CLOUDY    70  62  76 W13G21    29.72S
GRAND RAPIDS   CLOUDY    68  64  87 W13       29.69S
KALAMAZOO      MOCLDY    71  60  68 W13G20    29.74S
STURGIS*       CLEAR     67  63  87 SW7       29.76S
THREE RIVERS*  CLOUDY    71  62  73 SW3       29.75F

$$
OHZ001>008-015>018-024>025-180900-
NORTHWEST OHIO

CITY           SKY/WX    TMP DP  RH WIND       PRES   REMARKS
DEFIANCE       CLEAR     70  65  84 SW5       29.77S
FINDLAY        CLEAR     71  67  87 SW9       29.78S
TOLEDO EXPRESS CLEAR     71  68  90 SW14      29.75S
TOLEDO METCALF CLEAR     72  68  87 SW9       29.75F
LIMA           CLEAR     69  68  96 SW7       29.80S

$$
AND FOR LAKE MICHIGAN COASTAL AND OPEN LAKE BUOY OBSERVATIONS

STATION/POSITION TEMP    WIND        PRES    VSBY  WAVE
                 AIR SEA DIR/SP/G                  HT/PER
                 (F)     (DEG/KT/KT) (MB)    (MI)  (FT/S)
CALUMET HARBOR    71     250/  5/  8 1007.8R
MICHIGAN CITY     73     250/ 20/ 22   N/A
BURNS HARBOR      73     260/ 16/ 18 1008.8R
SAINT JOSEPH      74     260/ 10/ 15 1007.5
SOUTH LAKE BUOY   70 71  300/ 19/ 23 1005.8          5/ 5
4 MI NW BRIDGMAN  72 73  300/ 17/ 23 1007.5R         5/ 5
MICHIGAN CITY     72 74  300/ 16/ 21   N/A           4/ 4

$$
&&



USA.gov is the U.S. government's official web portal to all federal, state and local government web resources and services.